Theta_e
328 329 327 323 322 319 315 314 309 310 314 314 313 313 313 313 315 315 314 314 318 320 319 319 320 316 315 314 312 311 311 311
323 322 324 323 321 318 313 311 308 313 314 314 313 313 314 314 315 315 316 317 318 319 319 317 316 315 314 313 312 311 310 309
323 323 322 319 320 317 313 310 311 314 314 314 314 315 314 315 315 316 317 319 320 320 319 316 314 313 312 311 311 310 309 309
319 319 320 323 324 318 313 312 316 315 316 319 323 322 317 316 318 322 322 321 321 321 318 314 313 311 310 309 309 308 308 308
319 321 326 328 323 319 313 315 317 317 320 325 326 324 323 322 322 322 321 319 317 315 312 311 310 310 309 308 308 307 307 308
323 323 327 329 324 318 315 318 319 323 327 325 325 326 325 324 320 319 318 315 313 312 311 310 309 309 308 308 308 307 305 305
323 324 328 329 320 317 317 322 327 328 327 327 326 325 323 321 319 317 315 313 313 311 310 309 309 308 308 308 307 306 305 304
328 329 329 327 319 319 324 328 329 328 328 327 325 323 321 318 316 315 313 311 310 310 309 309 309 308 307 306 304 303 302 302
326 329 328 324 319 324 327 329 329 329 328 327 323 321 320 318 315 313 311 311 310 310 309 309 308 307 306 305 303 301 300 299
328 329 329 328 326 326 327 330 330 329 327 325 324 324 320 316 312 310 310 310 310 309 308 308 307 306 306 304 302 300 298 298
330 330 330 329 328 330 330 329 327 326 326 326 324 319 314 312 311 310 310 310 309 308 307 305 304 304 303 302 300 299 298 297
329 330 329 327 325 325 325 325 324 323 321 318 315 314 313 312 311 310 310 308 307 305 304 303 303 302 302 301 299 298 297 297
328 327 327 324 322 322 322 319 315 314 313 313 312 312 312 311 310 309 307 305 303 303 303 303 302 302 302 301 298 297 296 296
329 328 326 323 322 322 319 314 313 312 312 310 310 310 310 309 308 306 304 302 300 301 301 302 302 301 301 299 295 297 296 295
328 328 326 323 322 320 315 313 313 311 310 310 310 309 309 306 303 301 299 298 297 297 298 302 301 299 299 299 294 294 293 295
327 329 326 324 322 318 315 313 311 310 310 309 308 305 303 301 299 298 297 296 296 298 299 300 301 299 297 297 297 295 291 291
327 328 326 324 322 319 315 313 312 311 310 307 303 301 299 298 298 297 296 296 298 301 301 300 300 299 297 297 296 295 293 290
327 327 325 324 323 320 316 315 312 311 309 305 300 299 298 297 297 296 296 298 299 300 299 297 296 296 296 296 295 294 292 291
327 327 325 324 324 322 318 315 313 311 308 301 298 298 297 297 296 295 295 296 299 299 298 297 296 296 296 296 295 295 293 292
327 327 325 326 325 323 319 315 313 310 305 300 299 298 297 296 296 295 295 298 299 298 298 298 296 296 296 295 295 295 293 292
Wind_Speed
25 29 31 28 22 23 23 23 20 20 21 22 23 24 22 21 18 18 18 17 17 15 15 15 10 12 13 12 13 12 11 12
28 33 30 18 16 17 14 16 19 20 22 22 22 21 19 17 15 15 15 15 13 12 11 12 11 12 13 12 10 9 10 11
25 29 29 28 14 12 15 16 18 20 21 21 20 18 17 15 13 13 12 10 10 9 9 10 11 11 12 11 8 8 10 10
40 40 38 25 17 15 15 17 18 20 21 20 16 16 14 13 11 10 9 7 7 9 10 10 11 9 9 9 9 8 7 5
30 29 24 22 19 18 19 21 20 20 18 17 15 13 12 12 11 9 11 11 13 13 12 11 8 9 8 9 8 9 9 7
32 27 21 20 20 19 19 20 19 18 18 16 15 14 15 15 14 15 12 12 12 10 9 10 10 10 8 8 10 10 10 8
30 26 21 22 19 20 21 20 16 18 17 17 18 17 16 15 14 13 11 9 7 6 6 8 8 8 8 9 9 9 11 11
27 24 22 23 21 22 20 18 18 21 20 19 17 15 15 15 15 12 9 7 6 7 7 8 8 6 7 8 8 9 11 11
26 23 22 24 23 20 20 22 20 21 19 17 16 15 14 13 12 10 8 6 7 7 6 5 6 8 7 7 8 9 10 12
25 24 25 24 22 21 24 24 21 19 17 17 16 13 13 13 11 9 8 8 5 3 4 5 6 5 5 7 8 8 10 12
26 26 26 25 24 24 25 22 19 18 17 16 16 16 15 12 10 9 6 3 2 2 4 5 5 5 4 5 6 8 9 9
27 28 27 27 27 25 22 20 17 17 18 19 18 17 15 11 9 7 6 3 1 3 5 4 5 6 3 4 6 7 6 7
26 28 30 31 29 26 22 22 21 20 20 18 17 16 14 10 7 6 2 2 4 4 3 5 5 4 3 2 3 6 6 6
31 34 33 31 30 25 22 24 23 22 20 19 17 15 13 8 6 2 1 3 4 4 5 4 3 2 2 1 2 3 2 5
38 39 36 32 29 26 24 24 22 22 22 21 17 13 10 7 4 1 2 6 7 7 5 2 2 2 1 1 1 3 3 4
44 42 39 35 31 29 31 34 27 26 25 19 16 11 8 5 2 2 4 7 8 7 5 2 1 3 3 2 1 1 3 3
39 39 40 37 33 32 35 32 29 26 23 20 16 12 8 4 1 3 5 5 4 3 3 4 3 1 1 2 4 5 7 5
36 37 40 38 35 35 37 35 33 28 26 23 18 14 9 6 3 4 6 5 3 2 2 2 1 1 1 2 5 6 6 6
38 38 37 41 37 38 38 38 35 33 31 25 20 16 12 8 4 3 4 4 4 5 2 2 2 1 3 4 7 8 9 8
33 36 35 39 39 40 38 37 35 35 29 23 19 15 10 7 5 6 4 5 5 8 7 4 5 5 7 8 9 11 10 7
Wind_Direction
84 105 128 117 134 139 141 138 133 139 136 135 133 130 124 121 116 107 101 101 97 93 89 83 93 79 76 68 61 53 46 54
97 94 104 118 124 112 114 136 145 142 138 137 133 126 125 118 117 110 107 101 100 96 100 95 94 77 74 65 62 56 53 46
126 129 127 126 111 146 151 152 147 146 143 139 136 133 132 133 124 118 117 116 107 105 103 91 97 86 72 71 64 56 46 42
125 133 140 166 179 167 160 158 154 150 143 142 134 130 128 127 125 124 123 132 119 120 118 111 102 90 81 71 61 57 51 39
159 159 169 176 185 178 170 160 158 154 147 147 149 143 138 135 125 126 123 119 114 119 113 104 92 93 87 72 56 56 52 51
167 175 176 185 188 178 173 163 162 158 157 165 165 158 147 142 136 126 129 122 121 116 109 94 93 95 82 62 45 38 38 38
177 179 186 191 187 180 169 166 169 178 174 166 167 159 156 150 144 135 127 122 110 107 99 106 96 81 57 37 36 30 26 23
179 187 190 190 190 181 173 172 170 168 171 170 175 166 157 148 139 130 123 113 108 100 99 90 82 56 33 49 44 39 34 28
191 194 194 193 189 184 179 176 176 176 177 177 168 162 155 148 135 126 120 123 115 105 90 75 50 31 41 49 51 56 54 52
192 199 194 195 188 193 187 184 181 181 181 176 174 172 162 147 139 128 123 131 119 89 65 38 17 48 71 53 63 81 74 65
194 196 198 195 183 176 179 180 179 181 180 182 175 164 154 153 146 136 134 156 143 41 24 45 78 58 74 94 79 89 83 65
196 199 198 183 174 175 175 176 178 175 169 167 167 164 163 160 148 156 178 177 90 15 13 41 29 32 92 92 100 101 90 65
193 192 181 175 173 172 173 171 165 162 166 167 168 169 170 175 181 176 176 314 9 3 9 4 12 28 102 92 137 121 84 59
190 187 184 185 183 182 183 178 173 171 170 172 171 174 177 184 188 183 331 341 344 337 336 356 37 29 98 80 355 247 213 63
194 192 192 193 191 188 182 175 173 174 175 175 174 184 185 188 173 120 349 351 348 344 340 36 322 42 187 202 69 245 329 253
197 197 198 196 193 192 186 183 176 188 180 175 173 174 173 168 140 51 10 1 347 339 341 335 226 177 102 82 312 276 195 311
199 201 200 198 198 199 196 190 194 190 180 173 172 172 173 152 93 9 8 16 26 45 81 86 86 123 241 270 265 254 248 223
203 202 204 202 203 208 204 201 198 182 178 180 178 171 160 142 104 52 46 34 3 178 172 337 1 154 164 243 243 246 244 233
204 206 204 207 211 212 211 209 204 193 182 181 173 165 158 142 121 83 349 291 222 231 259 211 221 248 251 267 265 267 254 257
202 208 209 208 215 215 213 214 204 194 185 185 180 170 156 147 140 332 352 217 222 240 242 257 251 250 243 256 273 256 243 251